Location: Darmstadt
(49.8706°N, 8.6494°E)
Time: 07:14:54
(UTC+01:00)

FALCON 9 DEB - Pass Details

Date: 31 October 2020
Orbit: 377 x 396 km, 53.0° (Epoch: 03 December)

Event Time Altitude Azimuth Distance (km) Brightness Sun altitude
Rises 17:32:21 0° 247° (WSW) 2,308 9.4 -5.2°
Reaches altitude 10° 17:34:25 10° 248° (WSW) 1,449 7.6 -5.5°
Maximum altitude 17:37:40 88° 332° (NNW) 404 3.0 -6.0°
Drops below altitude 10° 17:40:54 10° 68° (ENE) 1,443 5.1 -6.5°
Enters shadow 17:41:10 - 68° (ENE) 1,548 5.2 -6.6°
